Wind_Speed
18 21 21 20 19 17 18 24 32 35 39 40 36 35 36 37 38 39 37 37 40 39 37 36 37 36 39 37 33 26 25 25 22 18 14 12 9 5 3 4 7 6 7 8 8 8 10
22 19 21 24 18 20 21 22 22 25 28 30 32 32 33 35 36 38 39 36 39 38 38 38 40 37 31 30 28 28 31 32 27 22 18 17 14 12 9 4 2 5 7 7 8 9 9
28 22 21 23 25 22 22 19 25 27 29 31 32 34 32 30 32 33 34 37 37 35 36 37 37 31 29 29 30 31 33 35 31 26 22 18 16 16 11 7 6 8 9 9 10 14 17
28 22 24 25 26 24 23 21 20 23 28 32 33 36 35 36 34 31 32 32 33 36 39 35 34 33 30 30 33 33 35 36 32 31 26 21 19 19 18 15 14 16 16 17 19 21 21
23 28 29 31 31 27 27 31 25 23 26 31 32 32 35 40 41 39 34 32 34 35 32 33 34 33 32 35 36 35 35 36 34 33 29 28 24 23 24 22 23 22 20 20 21 24 28
31 27 34 33 39 39 38 34 31 31 26 29 33 35 35 36 38 43 38 34 33 29 32 32 31 32 34 40 38 36 36 36 35 36 33 29 26 27 28 27 27 25 24 24 25 29 30
39 35 36 35 37 43 42 41 39 38 34 34 36 40 39 39 37 37 39 37 31 29 31 29 30 33 37 43 40 38 38 37 37 37 34 31 32 31 32 31 29 29 29 30 32 34 35
40 42 44 42 39 38 39 42 44 43 40 40 39 38 44 39 40 34 35 36 31 29 29 26 28 34 41 44 41 40 40 39 38 39 37 37 37 35 35 33 32 31 33 33 32 33 35
38 41 45 47 44 43 47 45 47 43 45 48 48 45 43 43 38 34 33 35 31 29 27 25 24 34 41 41 41 42 42 42 41 41 41 40 40 39 37 34 35 34 34 33 31 28 29
42 36 39 42 45 47 50 51 54 52 48 47 53 53 52 43 38 36 35 36 32 29 27 27 23 33 39 41 40 42 42 42 42 41 42 42 43 41 40 39 40 39 36 31 30 31 35
45 43 46 48 45 47 43 46 49 51 56 61 53 55 58 49 43 37 41 35 33 30 28 30 27 32 35 37 38 40 41 43 43 43 42 43 44 44 42 43 39 38 34 33 32 34 37
52 56 48 42 51 51 52 50 50 54 59 65 57 60 57 56 50 41 39 40 36 34 32 35 34 33 33 35 39 40 44 44 44 44 44 44 46 45 43 41 40 39 37 36 38 40 37
57 61 58 58 55 53 50 45 51 53 59 63 61 61 63 57 53 49 41 44 41 37 43 40 41 40 39 40 40 41 43 44 45 47 47 48 48 45 43 42 42 42 45 43 42 46 42
64 60 65 62 59 58 56 57 53 49 57 59 59 65 66 61 61 53 50 41 45 47 48 48 48 48 46 45 47 48 48 49 50 52 53 51 49 48 46 45 42 43 45 48 47 47 48
67 67 67 65 69 67 63 62 63 65 56 54 54 61 65 67 70 61 58 48 46 59 57 57 56 54 54 54 53 52 53 54 54 57 56 52 51 51 52 52 54 55 55 56 56 54 53
73 73 72 71 70 73 73 69 72 69 70 69 63 59 61 68 74 71 65 57 58 63 66 66 64 61 61 61 59 57 57 56 55 55 55 55 56 58 58 59 60 62 63 64 66 62 61
80 79 73 71 76 77 79 80 81 79 77 76 75 74 68 69 74 81 71 70 67 70 70 68 69 71 69 68 67 63 61 61 63 63 63 63 63 62 64 65 68 68 69 72 74 71 70
87 79 79 74 78 81 85 89 87 82 84 85 84 85 81 75 77 79 75 77 77 76 76 73 71 72 76 75 74 72 68 69 69 70 70 71 68 67 71 72 75 76 75 78 78 77 77
84 80 78 82 79 90 93 88 89 87 87 94 94 92 91 91 84 84 82 87 89 82 84 82 76 77 78 78 79 77 78 77 77 78 78 78 76 77 76 77 80 82 81 82 82 82 82
89 89 93 89 91 98 92 87 90 97 98 108 111 109 104 100 96 90 89 87 97 95 95 92 84 84 82 83 83 81 81 84 85 85 86 87 84 82 82 85 85 86 87 88 88 88 87
92 96 99 98 98 100 98 98 97 106 108 115 120 113 112 112 104 102 94 93 94 94 99 98 92 90 89 86 86 87 86 86 88 90 91 93 91 90 91 91 90 90 90 93 93 93 95
94 97 100 99 104 97 102 106 109 111 111 103 96 93 95 101 106 108 103 97 98 95 100 100 99 97 95 93 94 90 89 90 91 91 91 92 93 93 94 95 96 97 96 95 95 96 99
95 101 105 103 101 103 110 110 108 100 89 84 81 78 81 87 96 105 108 103 101 100 98 106 108 104 104 97 96 94 94 95 93 90 89 89 91 92 92 93 95 96 92 96 98 97 98
99 98 102 103 106 109 110 102 92 82 76 77 76 74 74 75 84 96 105 109 105 103 101 98 105 110 105 104 101 96 97 96 93 90 88 85 92 97 96 93 95 95 95 96 96 97 98
104 105 108 111 111 110 99 87 79 75 72 75 77 76 75 72 76 81 98 109 110 108 106 103 101 107 107 107 104 102 99 100 92 94 88 84 88 92 93 89 90 95 98 97 95 98 100
108 110 112 108 108 97 87 79 75 73 72 73 77 77 77 74 73 76 86 98 109 114 111 109 108 105 104 105 107 106 106 101 98 94 94 87 91 96 95 94 97 96 98 101 102 97 99
108 115 111 99 92 84 79 75 73 72 69 70 72 75 76 74 75 77 77 90 95 106 114 114 112 110 112 112 111 109 113 106 104 100 94 99 95 98 99 100 101 105 103 105 104 102 102
109 110 93 87 83 79 74 72 69 68 66 67 69 71 73 74 76 77 78 81 91 99 111 117 119 117 118 117 112 108 105 111 111 103 97 99 102 106 105 106 105 106 110 109 107 108 110
108 94 85 79 75 71 67 66 65 64 63 64 65 67 69 71 72 76 78 81 87 97 102 113 120 123 125 122 118 112 109 111 108 112 110 108 107 106 110 112 113 112 112 115 117 115 117
Wind_Direction
298 298 313 314 303 292 271 262 259 263 267 273 277 278 276 280 281 281 278 278 278 278 275 272 273 274 278 272 262 242 221 207 204 204 200 198 181 177 134 90 69 48 37 35 18 15 9
301 296 295 307 304 307 289 281 270 265 268 270 273 273 273 275 277 276 276 274 272 273 272 271 273 275 267 260 238 219 214 209 211 211 209 205 221 222 222 215 356 352 352 345 344 344 343
310 294 293 294 303 301 305 293 284 279 272 274 275 273 271 275 273 277 275 275 275 278 277 276 276 265 264 250 217 212 212 213 218 219 216 219 231 229 228 242 278 296 301 307 312 318 319
300 297 298 282 286 292 296 299 311 311 288 278 277 275 278 272 273 274 271 275 276 279 279 274 273 263 246 230 206 207 211 215 217 222 224 228 235 238 234 249 270 279 284 296 305 311 311
287 293 297 300 282 283 295 300 289 303 307 301 289 280 278 272 269 270 271 269 274 277 271 275 272 257 226 215 203 205 211 215 218 226 227 232 242 242 244 255 270 272 277 287 296 303 305
302 282 285 290 292 292 287 294 293 290 296 305 302 298 287 284 274 264 261 268 276 262 271 277 263 245 219 206 202 206 210 214 219 225 232 233 240 248 256 261 262 270 275 284 286 294 295
297 292 288 295 283 285 288 295 296 291 288 294 302 309 300 297 286 265 256 263 266 259 269 275 254 231 217 204 203 208 211 216 221 225 233 235 244 252 258 262 268 270 275 285 280 289 295
288 286 286 287 289 276 288 286 286 288 282 286 296 299 305 303 297 276 257 259 254 257 267 270 248 228 209 204 206 211 214 219 226 230 234 238 246 253 259 264 273 282 281 280 283 293 294
296 284 279 280 278 277 280 281 287 283 280 283 287 294 301 299 302 280 259 258 246 252 256 261 243 214 206 211 213 215 219 224 228 233 240 239 248 253 260 264 269 280 279 281 292 290 294
290 282 284 282 273 272 273 273 278 274 276 283 281 286 290 295 299 285 262 259 244 245 244 244 234 218 217 219 220 222 227 230 235 240 242 246 249 256 261 264 271 274 277 285 288 294 295
293 296 290 281 277 280 277 271 272 267 268 276 276 280 284 285 289 290 271 254 243 244 236 237 231 231 228 228 231 231 232 239 241 242 246 249 253 259 266 269 268 270 274 281 290 293 294
304 298 294 286 282 281 279 278 277 269 267 270 272 274 277 278 282 281 277 252 242 240 241 239 232 232 236 236 235 236 239 241 242 247 252 254 257 263 263 261 264 267 273 277 285 292 291
304 298 296 294 298 286 279 277 272 271 269 270 270 267 271 272 275 271 274 256 244 239 240 242 239 237 238 239 241 243 244 246 248 250 253 256 260 257 255 260 268 270 274 275 278 283 288
306 303 297 291 292 293 285 280 276 276 268 272 268 269 265 265 267 263 265 261 250 244 241 242 243 242 240 243 248 250 249 251 253 256 257 257 252 254 260 263 267 271 272 275 278 282 287
302 302 306 300 293 288 287 280 282 280 272 271 273 269 263 262 260 258 253 262 254 247 247 242 243 243 245 246 248 252 251 255 256 254 256 252 253 259 261 265 269 271 271 275 277 280 285
300 300 299 300 298 289 282 280 282 277 276 271 271 269 267 264 257 256 249 253 254 252 249 246 245 243 245 247 248 250 253 254 256 253 252 254 256 261 263 266 269 271 275 277 278 281 286
298 295 293 292 293 296 288 289 283 275 274 275 274 268 264 261 257 254 246 250 249 249 248 250 250 246 244 246 248 249 251 253 254 254 254 256 258 261 265 268 270 273 276 278 280 284 286
296 291 292 291 288 291 291 290 288 283 276 272 271 271 263 260 254 252 243 245 246 248 247 248 250 253 249 249 249 250 250 251 253 254 255 257 257 259 263 267 271 273 274 277 281 284 287
293 289 291 292 289 291 290 287 285 285 278 278 272 268 264 261 255 249 246 246 244 244 248 248 251 250 251 251 251 252 253 253 252 254 257 259 259 261 265 267 269 271 275 277 280 283 287
295 291 291 294 292 295 291 287 284 281 279 278 276 271 266 261 258 251 245 242 245 242 246 248 249 251 248 250 252 251 254 255 257 258 259 260 262 264 265 266 268 271 274 277 279 283 282
298 295 291 290 292 293 289 286 285 283 279 275 276 269 265 260 255 251 244 241 241 242 244 244 245 248 249 249 251 252 253 254 256 259 261 263 265 266 267 268 269 270 272 275 278 280 281
293 295 293 289 294 290 288 289 287 283 281 278 272 268 261 255 250 247 243 241 238 237 237 243 244 245 248 250 251 250 253 254 256 258 260 263 265 265 267 269 269 271 273 275 277 278 281
298 297 295 293 290 290 289 288 286 283 278 274 271 265 261 254 247 244 242 239 239 236 237 238 243 244 246 249 250 251 253 254 255 257 260 263 265 267 268 271 272 271 274 274 277 280 283
298 298 301 293 288 289 291 288 283 277 274 272 269 265 261 257 252 244 239 239 238 238 237 239 240 244 246 249 249 252 253 254 256 256 260 265 266 267 268 269 270 274 275 279 282 283 285
294 299 301 296 291 291 288 283 276 272 271 270 268 265 263 259 255 249 242 239 238 238 237 239 242 241 245 247 248 250 252 252 256 257 260 262 264 264 269 267 268 273 276 278 280 281 283
301 300 301 295 292 287 282 277 272 271 269 268 266 263 261 258 255 251 245 243 238 237 239 237 240 241 245 249 247 251 251 251 248 252 255 259 261 265 267 266 263 263 270 276 278 280 281
300 302 297 292 286 281 278 274 271 270 269 267 263 260 258 257 254 251 246 245 243 238 235 237 238 242 244 245 246 248 251 251 251 251 253 258 258 258 260 265 268 271 273 274 276 278 279
300 298 292 287 282 277 275 272 271 270 269 265 262 259 257 254 251 250 247 244 244 242 236 235 237 240 243 245 246 248 252 255 254 252 249 252 259 260 261 262 262 264 271 274 277 278 278
298 292 288 283 279 275 273 271 269 269 267 264 262 259 256 251 247 246 245 243 241 242 242 238 237 238 242 244 244 244 248 250 251 253 251 251 254 255 262 263 263 264 265 269 274 276 278
Height
10769 10768 10768 10766 10764 10762 10760 10760 10760 10761 10761 10761 10761 10761 10761 10760 10759 10759 10758 10758 10758 10758 10758 10758 10757 10755 10755 10754 10754 10756 10759 10762 10763 10764 10764 10764 10763 10762 10760 10759 10759 10758 10758 10757 10756 10755 10754
10764 10764 10764 10763 10761 10760 10758 10756 10754 10754 10755 10755 10754 10754 10753 10752 10752 10752 10751 10749 10749 10749 10749 10749 10748 10747 10746 10746 10747 10750 10753 10757 10759 10760 10760 10761 10761 10760 10759 10757 10757 10757 10757 10756 10755 10754 10753
10758 10758 10759 10759 10758 10757 10755 10754 10752 10751 10750 10749 10749 10748 10747 10746 10745 10744 10743 10742 10742 10741 10740 10739 10738 10738 10739 10739 10741 10745 10748 10751 10754 10755 10756 10758 10758 10757 10756 10755 10754 10754 10754 10754 10753 10752 10751
10753 10753 10753 10754 10754 10753 10752 10751 10750 10748 10746 10744 10743 10742 10741 10740 10738 10736 10735 10734 10733 10732 10731 10730 10729 10729 10730 10733 10735 10739 10742 10746 10749 10751 10752 10753 10754 10754 10754 10752 10752 10751 10750 10749 10748 10748 10747
10750 10749 10748 10748 10748 10747 10746 10746 10745 10743 10742 10740 10738 10735 10733 10732 10732 10730 10728 10726 10725 10724 10722 10722 10721 10721 10722 10726 10729 10733 10737 10740 10743 10745 10747 10748 10749 10749 10750 10749 10749 10748 10747 10746 10745 10743 10741
10743 10743 10743 10742 10742 10742 10741 10739 10738 10738 10736 10734 10734 10732 10728 10724 10721 10721 10721 10720 10718 10716 10715 10714 10712 10713 10715 10719 10723 10728 10731 10734 10738 10740 10742 10743 10744 10744 10744 10744 10744 10744 10743 10742 10741 10739 10737
10733 10735 10735 10735 10734 10733 10733 10731 10731 10730 10728 10727 10725 10724 10721 10717 10713 10711 10713 10713 10712 10710 10708 10707 10705 10707 10708 10712 10717 10722 10726 10729 10732 10735 10737 10738 10738 10738 10738 10738 10738 10738 10738 10736 10736 10733 10731
10726 10725 10725 10725 10725 10725 10724 10723 10722 10722 10721 10719 10717 10716 10714 10711 10707 10705 10705 10705 10705 10705 10704 10701 10699 10701 10704 10708 10712 10716 10720 10723 10726 10729 10731 10732 10732 10733 10732 10732 10731 10731 10730 10729 10728 10727 10725
10720 10719 10716 10715 10714 10714 10715 10714 10713 10713 10712 10711 10709 10708 10707 10705 10702 10700 10699 10698 10698 10699 10701 10698 10696 10697 10702 10706 10709 10711 10714 10717 10720 10722 10724 10726 10726 10726 10726 10725 10724 10724 10723 10722 10721 10719 10717
10714 10712 10709 10707 10706 10704 10702 10703 10702 10703 10702 10701 10701 10699 10700 10699 10697 10695 10693 10692 10692 10694 10696 10695 10697 10699 10700 10702 10705 10706 10709 10711 10714 10715 10717 10719 10718 10718 10717 10717 10716 10715 10715 10714 10713 10711 10709
10705 10703 10701 10699 10696 10694 10692 10691 10689 10690 10690 10690 10690 10690 10691 10691 10691 10689 10687 10686 10688 10689 10692 10692 10693 10695 10697 10698 10699 10701 10703 10705 10707 10708 10710 10710 10710 10709 10709 10708 10708 10706 10706 10706 10705 10703 10701
10694 10692 10691 10688 10686 10684 10682 10680 10679 10677 10677 10676 10677 10678 10679 10681 10682 10681 10681 10680 10681 10684 10685 10684 10685 10688 10691 10692 10693 10694 10696 10697 10698 10699 10700 10700 10700 10700 10699 10699 10698 10696 10697 10696 10695 10694 10695
10684 10679 10678 10676 10673 10672 10669 10667 10666 10664 10663 10662 10662 10663 10664 10667 10670 10671 10673 10674 10676 10677 10673 10677 10677 10678 10681 10683 10685 10686 10687 10688 10688 10688 10689 10690 10690 10688 10688 10688 10688 10687 10685 10686 10686 10683 10684
10670 10668 10665 10662 10661 10658 10656 10654 10652 10649 10647 10649 10650 10647 10649 10651 10655 10658 10661 10666 10671 10666 10662 10665 10667 10669 10671 10672 10673 10675 10676 10677 10677 10677 10678 10680 10678 10677 10676 10677 10676 10675 10673 10672 10675 10673 10671
10655 10651 10649 10648 10646 10643 10640 10637 10635 10633 10632 10630 10630 10634 10636 10634 10638 10642 10647 10656 10658 10653 10652 10651 10653 10656 10658 10659 10661 10662 10663 10664 10664 10664 10665 10666 10667 10664 10664 10664 10663 10662 10660 10657 10659 10660 10661
10636 10633 10629 10627 10626 10625 10623 10620 10616 10613 10613 10610 10610 10612 10616 10618 10619 10621 10630 10643 10642 10634 10635 10637 10640 10643 10644 10644 10646 10647 10650 10652 10650 10650 10651 10653 10653 10652 10651 10650 10649 10647 10646 10643 10640 10644 10647
10616 10612 10610 10606 10603 10601 10600 10598 10595 10593 10591 10587 10587 10589 10596 10596 10598 10599 10615 10622 10621 10617 10617 10620 10624 10627 10629 10629 10630 10633 10638 10638 10634 10634 10635 10636 10637 10640 10637 10636 10632 10633 10632 10626 10622 10627 10627
10592 10588 10584 10582 10580 10577 10573 10571 10568 10566 10563 10560 10561 10561 10570 10571 10571 10576 10594 10599 10599 10598 10598 10602 10607 10609 10613 10611 10615 10618 10622 10620 10619 10618 10618 10617 10622 10626 10622 10621 10617 10615 10613 10607 10606 10608 10607
10569 10564 10562 10558 10555 10551 10545 10541 10537 10536 10529 10528 10528 10533 10538 10542 10546 10554 10565 10571 10573 10578 10577 10581 10586 10590 10591 10595 10597 10603 10604 10604 10604 10600 10600 10601 10606 10607 10609 10606 10600 10595 10595 10590 10588 10589 10593
10544 10540 10536 10530 10526 10522 10517 10513 10509 10505 10496 10488 10486 10493 10501 10508 10515 10526 10534 10542 10545 10552 10553 10553 10564 10569 10572 10576 10576 10583 10584 10585 10583 10582 10580 10578 10585 10589 10589 10584 10582 10580 10576 10573 10571 10573 10568
10516 10512 10506 10501 10495 10491 10484 10479 10475 10467 10456 10447 10441 10447 10457 10466 10478 10488 10498 10509 10516 10523 10527 10530 10539 10546 10549 10551 10555 10560 10564 10562 10561 10562 10560 10560 10566 10566 10564 10562 10562 10563 10562 10555 10554 10550 10546
10487 10480 10475 10470 10464 10457 10452 10441 10431 10426 10412 10406 10404 10404 10412 10419 10431 10446 10458 10478 10489 10495 10501 10505 10511 10518 10520 10529 10533 10536 10539 10539 10539 10543 10540 10540 10540 10542 10542 10540 10539 10541 10541 10540 10537 10530 10527
10458 10451 10443 10436 10429 10421 10414 10403 10393 10384 10377 10374 10374 10375 10376 10382 10395 10407 10426 10442 10456 10461 10473 10480 10486 10491 10497 10506 10509 10512 10514 10515 10517 10520 10519 10518 10518 10519 10519 10516 10514 10517 10525 10517 10513 10512 10505
10426 10418 10410 10403 10395 10384 10376 10367 10358 10351 10351 10350 10348 10348 10352 10361 10363 10377 10392 10408 10425 10434 10445 10455 10461 10466 10474 10478 10483 10488 10491 10493 10495 10499 10500 10499 10497 10493 10497 10494 10489 10501 10499 10495 10490 10488 10483
10393 10384 10377 10368 10358 10349 10341 10335 10329 10324 10326 10326 10324 10324 10328 10339 10341 10352 10362 10375 10390 10403 10414 10425 10436 10441 10448 10451 10455 10460 10467 10471 10477 10477 10479 10480 10477 10472 10470 10471 10472 10476 10474 10471 10469 10467 10462
10359 10348 10341 10332 10323 10315 10309 10306 10302 10300 10301 10301 10300 10301 10305 10314 10323 10325 10332 10342 10359 10372 10385 10397 10406 10414 10419 10421 10426 10432 10439 10447 10452 10455 10459 10458 10456 10451 10451 10449 10450 10454 10450 10447 10444 10449 10441
10323 10312 10304 10297 10290 10285 10281 10279 10276 10275 10276 10277 10277 10278 10283 10292 10300 10300 10311 10315 10328 10342 10354 10367 10378 10385 10389 10395 10401 10410 10414 10419 10425 10429 10435 10432 10429 10427 10424 10422 10427 10428 10427 10424 10421 10424 10419
10286 10278 10271 10265 10261 10257 10255 10253 10252 10251 10253 10254 10254 10256 10261 10270 10276 10280 10288 10297 10303 10311 10325 10337 10346 10356 10362 10369 10377 10384 10389 10392 10394 10400 10406 10407 10406 10405 10402 10401 10403 10404 10402 10399 10398 10397 10395
10255 10247 10241 10237 10234 10231 10230 10229 10228 10229 10231 10233 10232 10234 10239 10246 10255 10257 10265 10272 10279 10285 10295 10306 10318 10324 10327 10340 10349 10356 10361 10364 10366 10372 10378 10381 10379 10379 10379 10377 10375 10375 10376 10374 10373 10372 10369